Kelso-Longview, WA
on Sunday, November 18, 2012

Sunday
Previous Day Next Day
Daily Summary
 ActualAverage (KSPB)Record (KSPB)
Temperature
Mean Temperature °F °F  
Max Temperature 51°F °F 59°F (2001)
Min Temperature 44°F °F 21°F (2000)
Degree Days
Heating Degree Days 18    
Month to date heating degree days  
Since 1 July heating degree days  
Cooling Degree Days 0    
Month to date cooling degree days  
Year to date cooling degree days  
Moisture
Dew Point 41°F   
Average Humidity 77    
Maximum Humidity 87    
Minimum Humidity 67    
Precipitation
Precipitation 1.08 in in 1.52 in (2012)
Month to date precipitation  
Year to date precipitation  
Wind
Wind Speed 16 mph   
Max Wind Speed 30 mph   
Max Gust Speed 44 mph   
Visibility 10 miles   
Events     

Key: T is trace of precipitation, MM is missing value
Source: NWS Daily Summary
Time(PST)TemperatureDew PointHumidity Pressure Visibility Wind DirectionWind SpeedGust SpeedPrecipitationEvents Conditions
12:15 AM 46.4°F 39.2°F 76% 29.78 in 10.0 miles SE 12.7 mph 18.4 mph N/A   Overcast
12:35 AM 46.4°F 39.2°F 76% 29.78 in 10.0 miles SSE 17.3 mph 21.9 mph N/A   Overcast
12:55 AM 46.4°F 39.2°F 76% 29.78 in 10.0 miles SE 13.8 mph 19.6 mph N/A   Overcast
1:15 AM 46.4°F 39.2°F 76% 29.79 in 10.0 miles SSE 12.7 mph 19.6 mph N/A   Overcast
1:35 AM 46.4°F 39.2°F 76% 29.79 in 10.0 miles SSE 15.0 mph 20.7 mph N/A   Overcast
1:55 AM 46.4°F 39.2°F 76% 29.79 in 10.0 miles SSE 12.7 mph 19.6 mph N/A   Overcast
2:15 AM 46.4°F 39.2°F 76% 29.79 in 10.0 miles SE 16.1 mph 21.9 mph N/A   Overcast
2:35 AM 46.4°F 39.2°F 76% 29.80 in 10.0 miles SSE 17.3 mph 23.0 mph N/A   Overcast
2:55 AM 44.6°F 37.4°F 76% 29.79 in 10.0 miles SE 15.0 mph 20.7 mph N/A   Overcast
3:15 AM 44.6°F 37.4°F 76% 29.79 in 10.0 miles SE 16.1 mph 23.0 mph N/A   Overcast
3:35 AM 44.6°F 39.2°F 81% 29.80 in 10.0 miles SE 17.3 mph 24.2 mph N/A   Mostly Cloudy
3:55 AM 44.6°F 39.2°F 81% 29.80 in 10.0 miles SE 10.4 mph 20.7 mph N/A   Overcast
4:15 AM 44.6°F 39.2°F 81% 29.79 in 10.0 miles SE 13.8 mph 24.2 mph N/A   Overcast
4:35 AM 44.6°F 39.2°F 81% 29.80 in 10.0 miles SE 11.5 mph 18.4 mph N/A   Overcast
4:55 AM 46.4°F 39.2°F 76% 29.80 in 10.0 miles SE 12.7 mph 20.7 mph N/A   Overcast
5:15 AM 46.4°F 39.2°F 76% 29.79 in 10.0 miles SE 13.8 mph 26.5 mph N/A   Overcast
5:35 AM 46.4°F 39.2°F 76% 29.79 in 10.0 miles SSE 16.1 mph 20.7 mph N/A   Overcast
5:55 AM 46.4°F 39.2°F 76% 29.78 in 10.0 miles SE 15.0 mph 21.9 mph N/A   Overcast
6:15 AM 46.4°F 39.2°F 76% 29.79 in 10.0 miles SSE 15.0 mph 23.0 mph N/A   Overcast
6:35 AM 46.4°F 39.2°F 76% 29.78 in 10.0 miles SSE 15.0 mph 26.5 mph N/A   Overcast
6:55 AM 46.4°F 39.2°F 76% 29.79 in 10.0 miles SSE 15.0 mph 26.5 mph 0.01 in   Overcast
7:15 AM 46.4°F 39.2°F 76% 29.78 in 10.0 miles SSE 17.3 mph 24.2 mph N/A   Overcast
7:35 AM 46.4°F 39.2°F 76% 29.78 in 10.0 miles SSE 13.8 mph 21.9 mph 0.01 in   Overcast
7:55 AM 46.4°F 39.2°F 76% 29.79 in 10.0 miles SSE 13.8 mph 24.2 mph 0.01 in   Overcast
8:15 AM 46.4°F 39.2°F 76% 29.79 in 10.0 miles SSE 11.5 mph 31.1 mph N/A   Overcast
8:35 AM 46.4°F 39.2°F 76% 29.79 in 10.0 miles SSE 15.0 mph 26.5 mph N/A   Overcast
8:55 AM 46.4°F 39.2°F 76% 29.80 in 10.0 miles SSE 17.3 mph 26.5 mph N/A   Overcast
9:15 AM 46.4°F 39.2°F 76% 29.79 in 10.0 miles SSE 15.0 mph 25.3 mph N/A   Overcast
9:35 AM 46.4°F 41.0°F 81% 29.80 in 10.0 miles SSE 16.1 mph 25.3 mph N/A   Overcast
9:55 AM 46.4°F 39.2°F 76% 29.80 in 10.0 miles SSE 15.0 mph 26.5 mph N/A   Overcast
10:15 AM 48.2°F 39.2°F 71% 29.80 in 10.0 miles SSE 19.6 mph 27.6 mph N/A   Overcast
10:35 AM 48.2°F 39.2°F 71% 29.79 in 10.0 miles SSE 19.6 mph 29.9 mph N/A   Overcast
10:55 AM 48.2°F 39.2°F 71% 29.79 in 10.0 miles SSE 13.8 mph 27.6 mph N/A   Overcast
11:15 AM 48.2°F 41.0°F 76% 29.78 in 10.0 miles SSE 17.3 mph 27.6 mph N/A   Overcast
11:35 AM 48.2°F 39.2°F 71% 29.76 in 10.0 miles SE 19.6 mph 26.5 mph N/A   Overcast
11:55 AM 48.2°F 41.0°F 76% 29.75 in 10.0 miles SSE 12.7 mph 28.8 mph N/A   Overcast
12:15 PM 48.2°F 41.0°F 76% 29.74 in 10.0 miles SSE 12.7 mph 21.9 mph N/A   Overcast
12:35 PM 48.2°F 41.0°F 76% 29.73 in 10.0 miles SSE 20.7 mph 26.5 mph N/A   Overcast
12:55 PM 50.0°F 41.0°F 71% 29.72 in 10.0 miles SSE 18.4 mph 28.8 mph N/A   Overcast
1:15 PM 50.0°F 41.0°F 71% 29.71 in 10.0 miles SSE 12.7 mph 26.5 mph N/A   Overcast
1:35 PM 50.0°F 41.0°F 71% 29.71 in 10.0 miles SSE 13.8 mph 24.2 mph N/A   Overcast
1:55 PM 50.0°F 41.0°F 71% 29.70 in 10.0 miles SSE 11.5 mph 19.6 mph N/A   Overcast
2:15 PM 50.0°F 42.8°F 76% 29.69 in 10.0 miles SSE 15.0 mph 25.3 mph N/A   Overcast
2:35 PM 50.0°F 42.8°F 76% 29.68 in 10.0 miles SSE 15.0 mph 23.0 mph N/A   Overcast
2:55 PM 50.0°F 42.8°F 76% 29.67 in 10.0 miles SSE 15.0 mph 23.0 mph N/A   Overcast
3:15 PM 50.0°F 42.8°F 76% 29.66 in 10.0 miles SSE 17.3 mph 29.9 mph 0.01 in   Overcast
3:35 PM 51.8°F 41.0°F 67% 29.65 in 10.0 miles SSE 19.6 mph 32.2 mph 0.01 in   Overcast
3:55 PM 51.8°F 41.0°F 67% 29.65 in 10.0 miles SE 19.6 mph 36.8 mph 0.01 in   Overcast
4:15 PM 50.0°F 42.8°F 76% 29.64 in 10.0 miles SSE 19.6 mph 26.5 mph 0.01 in   Overcast
4:35 PM 50.0°F 42.8°F 76% 29.63 in 10.0 miles SE 19.6 mph 36.8 mph 0.03 in   Overcast
4:55 PM 50.0°F 42.8°F 76% 29.62 in 10.0 miles SE 17.3 mph 42.6 mph 0.06 in   Overcast
5:15 PM 50.0°F 41.0°F 71% 29.61 in 10.0 miles SSE 21.9 mph 34.5 mph 0.02 in   Overcast
5:35 PM 50.0°F 41.0°F 71% 29.59 in 10.0 miles SSE 25.3 mph 40.3 mph 0.04 in   Overcast
5:55 PM 50.0°F 42.8°F 76% 29.58 in 10.0 miles SE 29.9 mph 43.7 mph 0.07 in   Overcast
6:15 PM 50.0°F 41.0°F 71% 29.59 in 10.0 miles SE 29.9 mph 41.4 mph N/A   Overcast
6:35 PM 50.0°F 42.8°F 76% 29.60 in 10.0 miles SE 23.0 mph 40.3 mph 0.02 in   Overcast
6:55 PM 50.0°F 42.8°F 76% 29.59 in 10.0 miles SSE 21.9 mph 39.1 mph 0.03 in   Overcast
7:15 PM 50.0°F 42.8°F 76% 29.59 in 10.0 miles SSE 25.3 mph 38.0 mph N/A   Overcast
7:35 PM 50.0°F 42.8°F 76% 29.60 in 10.0 miles SSE 20.7 mph 26.5 mph 0.02 in   Overcast
7:55 PM 50.0°F 42.8°F 76% 29.60 in 10.0 miles SSE 23.0 mph 36.8 mph 0.04 in   Overcast
8:15 PM 48.2°F 42.8°F 82% 29.59 in 9.0 miles SSE 25.3 mph 35.7 mph 0.10 in   Overcast
8:35 PM 48.2°F 42.8°F 82% 29.62 in 10.0 miles SSE 24.2 mph 33.4 mph 0.14 in   Overcast
8:55 PM 48.2°F 42.8°F 82% 29.63 in 10.0 miles SSE 20.7 mph 28.8 mph 0.21 in   Overcast
9:15 PM 48.2°F 42.8°F 82% 29.63 in 10.0 miles SSE 13.8 mph 24.2 mph 0.05 in   Overcast
9:35 PM 50.0°F 44.6°F 82% 29.63 in 10.0 miles SSE 19.6 mph 26.5 mph 0.09 in   Mostly Cloudy
9:55 PM 48.2°F 44.6°F 87% 29.63 in 10.0 miles SSE 15.0 mph 24.2 mph 0.16 in   Overcast
10:15 PM 48.2°F 44.6°F 87% 29.62 in 9.0 miles SE 18.4 mph 23.0 mph 0.10 in   Overcast
10:35 PM 48.2°F 44.6°F 87% 29.62 in 10.0 miles SSE 13.8 mph 23.0 mph 0.17 in   Overcast
10:55 PM 50.0°F 44.6°F 82% 29.61 in 10.0 miles SSE 19.6 mph 28.8 mph 0.23 in   Mostly Cloudy
11:15 PM 50.0°F 44.6°F 82% 29.61 in 9.0 miles SSE 17.3 mph 29.9 mph 0.08 in   Mostly Cloudy
11:35 PM 50.0°F 44.6°F 82% 29.62 in 10.0 miles SSE 23.0 mph 32.2 mph 0.14 in   Overcast
11:55 PM 48.2°F 44.6°F 87% 29.62 in 6.0 miles SSE 21.9 mph 32.2 mph 0.25 in   Overcast
Moon Phase
Nov. 18 Nov. 20 Nov. 28 Dec. 06 Dec. 13
Sunrise:07:17 AM (PST) Moon Rise:11:44 AM (PST)11/18
Sunset:04:35 PM (PST) Moon Set:10:07 PM (PST)11/18

Copyright © 2014 The Weather Underground, Inc.